Wind_Speed
1 2 5 6 9 10 2 8 14 8 6 9 3 4 6 8 10 14 10 10 11 12 12 13 13 11 9 7 6 9 8 6 5 4 3 3 4 5 6 5 6 6 6 5 4 3 1 5 6
4 2 4 4 8 6 3 7 14 10 8 5 4 4 6 8 12 14 12 10 12 12 13 13 11 8 7 5 6 6 6 5 4 3 3 3 4 5 7 8 9 9 7 6 5 3 1 4 12
5 2 4 6 6 2 3 22 21 13 8 5 8 7 7 10 10 13 12 12 12 12 12 11 10 9 7 5 5 5 4 4 5 5 5 5 5 6 7 8 9 11 21 20 22 22 23 19 17
3 3 5 11 6 7 13 18 17 13 7 7 7 8 8 7 10 12 11 13 12 11 12 12 10 10 9 7 7 6 6 6 6 7 7 8 8 9 10 10 12 13 15 19 24 25 20 15 11
3 7 12 12 11 17 18 18 15 14 8 7 7 8 9 10 10 10 11 13 12 11 11 11 11 12 13 13 14 15 14 13 12 11 11 12 13 14 12 13 13 13 16 21 19 17 16 14 12
4 6 9 12 10 22 17 18 18 14 10 8 8 9 10 12 11 10 12 13 13 11 11 12 13 15 17 18 20 21 21 20 20 18 17 17 16 15 14 13 13 15 17 19 20 19 17 16 15
4 7 7 8 9 18 17 19 18 14 10 7 9 10 10 14 11 11 11 12 13 11 11 12 14 16 18 19 21 21 21 20 20 19 19 18 18 17 14 14 14 14 16 17 19 19 16 17 17
3 6 8 6 3 12 16 23 20 17 11 9 9 11 11 16 13 13 14 12 11 12 10 13 13 15 17 18 19 20 20 18 18 17 17 17 18 17 16 16 15 15 16 17 17 16 17 18 15
6 4 1 3 6 2 10 14 20 15 13 11 9 11 11 15 16 13 13 17 9 10 11 11 13 14 15 16 17 17 18 17 17 15 16 16 17 18 18 17 16 16 17 15 12 13 15 17 15
6 3 3 2 2 2 6 7 20 23 16 12 10 9 11 12 17 14 12 13 11 12 12 7 12 12 13 14 14 14 18 15 14 15 15 17 16 17 18 18 18 17 16 14 11 13 14 18 16
4 7 3 3 2 3 6 8 11 21 20 16 12 10 10 10 12 14 13 12 11 12 10 9 12 11 11 12 13 13 16 14 13 13 14 14 16 17 18 19 15 15 16 15 14 15 18 17 16
9 9 7 4 1 3 3 8 9 17 20 14 12 11 11 11 13 15 12 12 11 8 10 9 10 9 9 10 13 13 14 15 14 13 13 15 17 15 16 17 14 14 13 12 18 16 14 14 17
12 10 9 6 5 3 2 0 9 22 17 13 11 10 9 12 11 13 13 11 12 10 8 7 8 10 10 9 9 11 12 13 13 13 14 14 14 12 16 15 17 13 16 19 16 23 12 14 16
16 12 11 8 8 3 4 3 6 10 24 15 11 10 11 12 13 13 15 13 11 12 9 6 7 8 8 7 6 9 9 11 11 11 12 13 11 10 10 18 12 14 19 18 15 15 16 16 16
16 12 15 12 13 6 2 3 2 14 9 11 11 12 13 13 12 13 14 15 14 12 12 7 6 7 6 5 4 4 6 11 10 10 10 12 10 6 16 11 13 14 17 16 14 16 19 18 18
21 16 13 12 15 9 9 13 8 10 11 18 16 14 15 14 12 12 13 15 15 14 13 10 7 6 5 5 5 3 2 7 8 7 8 10 10 8 11 11 13 11 17 14 12 16 17 17 17
23 17 15 14 15 15 15 11 15 12 9 13 21 18 16 15 13 11 14 15 15 15 14 13 11 8 6 4 5 2 1 5 5 6 7 6 10 9 7 10 10 9 14 12 11 12 13 13 13
21 13 23 19 19 22 18 17 7 6 8 12 19 22 18 16 16 15 15 15 16 16 15 14 12 9 8 5 4 4 1 2 2 4 6 7 7 8 8 9 8 11 11 10 9 9 11 10 9
10 7 28 24 18 20 26 20 17 11 11 10 17 23 21 18 18 18 17 16 14 17 15 15 15 12 9 6 5 5 6 5 3 2 3 5 6 6 7 8 9 9 8 8 9 7 9 8 7
30 23 30 31 25 21 26 19 26 20 12 11 19 28 25 22 20 19 18 17 16 16 18 17 16 12 8 7 7 5 4 3 1 0 2 2 5 4 5 7 6 8 9 8 7 8 8 9 10
35 25 19 25 26 20 23 22 28 16 12 13 14 31 28 24 21 21 18 19 17 16 17 17 17 13 10 10 8 5 2 4 4 1 1 2 3 5 4 4 3 5 8 6 7 7 7 8 7
31 28 28 10 18 27 13 17 18 18 20 14 20 29 25 28 23 23 20 20 20 19 17 17 17 15 12 10 8 5 6 6 5 4 1 2 2 5 5 3 4 4 5 7 8 7 4 3 3
37 25 17 17 18 18 16 16 24 25 25 18 21 16 36 30 24 20 20 20 21 21 18 18 18 17 13 11 8 6 7 9 6 4 4 3 5 5 6 5 4 4 2 3 4 6 5 5 3
40 31 29 23 27 20 19 18 26 30 21 21 25 19 36 31 26 24 16 20 21 22 20 18 20 19 15 13 11 8 9 6 6 6 7 8 9 7 5 6 4 3 1 2 2 4 5 3 3
41 41 29 30 30 23 16 16 35 39 41 23 27 13 19 17 21 17 23 19 17 20 19 20 19 19 17 15 14 10 9 8 8 9 9 11 11 8 5 4 4 3 2 2 2 2 4 4 4
46 39 30 30 26 22 17 28 43 40 11 6 8 14 14 15 31 15 14 19 15 17 18 20 20 20 18 17 15 12 11 10 9 10 10 10 7 7 8 8 7 3 2 1 3 2 3 4 5
33 44 31 21 17 18 26 36 44 43 28 23 20 20 24 17 12 17 17 17 20 16 19 21 22 23 22 20 17 15 12 12 10 9 10 9 12 11 9 9 8 7 4 4 5 5 5 4 5
36 39 39 33 28 23 31 36 43 38 32 27 28 29 26 19 18 19 17 22 24 22 19 22 24 23 25 25 22 18 15 13 12 10 9 11 14 17 11 11 7 7 6 5 6 7 6 6 4
45 42 41 31 21 21 24 34 46 45 32 33 33 30 30 28 26 24 27 34 34 28 24 23 25 25 26 27 27 23 20 16 13 11 10 11 16 14 11 4 8 9 5 4 5 6 6 5 6
49 37 42 36 36 29 35 35 43 34 31 27 32 33 30 30 29 27 32 26 34 30 26 22 25 26 26 26 25 26 23 19 17 15 13 12 14 16 12 13 12 8 4 5 5 6 6 7 7
Wind_Direction
181 74 22 2 350 351 92 109 102 135 134 148 32 88 109 102 111 111 105 97 96 91 98 106 115 119 119 119 132 124 130 134 134 134 121 98 83 64 61 54 57 50 41 29 5 7 77 126 134
164 92 345 346 354 329 295 185 148 146 152 142 116 101 115 113 122 113 110 102 97 100 100 103 106 104 102 101 98 117 125 136 134 120 107 104 73 67 55 52 50 48 34 22 353 307 252 150 108
139 60 333 329 356 27 88 151 160 156 165 145 105 118 121 122 116 119 113 106 103 104 104 102 100 90 79 62 76 96 114 122 131 131 106 91 89 67 72 69 63 63 72 74 82 90 103 105 96
113 17 314 305 300 190 145 150 151 155 163 140 117 117 117 127 120 119 119 110 102 103 103 101 87 77 77 77 82 94 112 120 123 112 113 102 91 83 81 72 69 71 74 88 84 94 98 100 93
84 26 339 8 334 173 128 147 156 154 159 121 128 122 125 126 120 116 115 108 102 97 97 94 88 88 87 89 95 101 106 107 113 121 113 101 90 84 81 74 75 73 73 80 79 86 91 87 84
88 45 32 11 44 154 162 161 165 151 141 149 134 136 134 126 123 122 119 112 106 99 95 91 93 95 94 92 97 98 98 99 98 98 102 98 92 87 80 79 83 76 75 72 76 77 76 78 75
91 61 50 45 107 136 158 166 165 153 156 145 141 145 146 128 127 124 120 107 111 102 95 99 97 97 95 90 89 92 92 93 92 95 98 97 94 92 88 88 89 85 77 72 70 68 69 70 69
113 73 80 37 70 155 164 172 178 154 156 155 153 159 157 136 134 136 128 133 107 103 96 100 101 98 94 91 91 91 91 90 92 94 96 99 99 94 94 87 85 82 77 70 68 73 73 67 67
141 100 150 39 335 126 179 196 167 169 169 167 161 162 166 153 141 142 138 119 127 115 100 97 105 104 103 99 101 101 95 92 90 93 93 93 91 93 94 88 84 82 78 72 70 70 75 83 74
112 151 184 118 24 14 199 213 189 166 173 169 164 167 178 171 140 155 151 143 134 112 110 84 111 114 109 107 105 104 98 93 91 86 87 90 92 92 91 87 83 83 88 86 69 71 75 77 77
138 155 159 127 119 213 219 184 195 183 170 169 177 171 173 174 159 158 165 153 141 135 125 128 106 104 111 105 101 89 89 93 91 89 81 90 88 96 96 94 97 112 96 99 92 75 71 74 81
201 190 186 175 229 160 102 198 196 199 183 171 176 172 180 176 175 166 174 169 145 143 135 126 112 96 96 103 105 101 103 93 89 90 87 82 83 91 101 98 97 68 71 73 83 70 77 84 87
237 184 189 180 178 120 68 126 158 160 146 175 170 175 190 176 189 180 172 183 158 157 152 135 125 131 115 102 103 107 105 103 97 87 84 81 83 96 96 85 94 71 74 77 64 72 85 89 90
198 197 187 184 214 194 52 34 176 180 165 171 171 179 192 193 193 184 183 183 188 161 160 160 147 140 142 97 99 111 109 99 94 94 89 89 97 96 86 87 81 75 71 77 82 87 89 85 92
189 199 201 187 205 199 168 190 202 185 192 187 183 186 190 198 194 196 192 188 188 183 170 161 142 159 141 130 119 130 128 111 101 93 97 99 89 63 82 86 97 79 81 87 71 91 84 90 92
177 197 201 231 211 224 214 194 202 164 184 192 201 199 200 192 192 203 196 197 193 190 182 169 153 161 167 153 150 192 190 108 85 81 81 92 96 77 85 86 90 100 81 81 86 77 85 91 95
214 215 229 239 234 237 225 219 224 173 179 194 198 203 209 195 188 204 203 196 203 195 192 184 173 170 174 168 173 137 338 67 62 69 62 83 105 108 96 92 94 77 83 87 89 93 91 91 96
218 196 225 248 264 244 240 247 296 191 216 209 210 207 207 201 191 197 205 200 197 203 198 198 191 186 189 180 211 196 190 93 81 68 62 52 84 110 116 114 103 106 99 97 97 97 95 92 94
185 213 236 235 212 262 249 250 250 229 223 226 214 205 207 205 200 199 202 198 201 201 202 201 201 201 193 180 187 205 196 188 162 37 40 42 51 103 108 109 113 105 108 105 96 97 106 114 99
171 219 218 242 211 213 240 231 239 206 213 235 224 210 207 209 204 202 202 201 201 202 204 203 205 204 196 175 191 212 222 202 217 357 31 63 68 88 98 109 117 126 118 101 111 95 100 109 116
195 202 231 250 237 246 220 230 242 208 225 230 251 210 202 211 210 203 203 205 199 204 204 209 205 197 196 192 192 221 234 244 253 282 8 24 81 100 118 120 119 97 114 127 114 103 97 112 103
197 180 237 195 258 268 248 255 254 244 244 244 236 236 212 204 212 199 201 205 202 204 205 211 208 203 199 196 193 202 238 249 256 238 237 119 129 123 139 158 141 158 154 152 130 122 124 125 105
187 187 248 195 227 211 228 226 262 245 240 244 238 251 207 197 202 201 202 212 207 207 205 208 211 205 203 208 206 225 240 256 257 266 214 166 167 161 155 173 190 108 142 166 149 143 146 164 156
194 187 232 224 214 212 226 244 250 254 218 225 243 259 210 189 192 196 208 217 216 212 206 208 214 208 209 214 227 238 249 253 262 235 227 219 192 166 168 176 190 144 112 168 164 145 165 169 174
193 187 207 227 223 225 215 254 247 253 233 220 233 236 184 223 192 203 205 225 225 221 212 207 214 218 213 217 225 239 248 244 236 242 218 230 206 144 189 193 196 169 168 209 187 133 165 180 180
196 188 208 224 224 229 189 240 251 247 184 311 258 248 261 200 200 193 214 213 232 219 220 217 210 218 222 224 226 231 233 246 234 229 240 230 231 199 198 193 206 200 187 283 287 247 193 198 185
211 198 192 213 224 218 230 234 245 252 264 265 268 244 239 232 237 213 234 231 230 217 219 216 214 214 220 225 228 228 233 238 241 236 237 228 230 210 214 193 204 196 180 223 243 256 236 220 206
200 209 190 190 203 213 240 246 256 259 260 260 258 248 238 239 227 230 214 237 229 220 217 221 223 216 218 223 225 227 229 237 246 237 236 245 233 229 218 205 198 214 174 221 234 239 236 230 232
200 194 202 190 209 215 228 234 237 244 247 250 251 246 243 245 238 230 227 193 232 214 206 233 225 226 225 222 224 225 229 230 239 243 237 238 252 244 237 204 223 222 185 203 229 253 248 240 233
203 204 198 193 189 198 230 233 243 247 256 248 236 239 242 240 247 241 234 253 205 204 220 214 229 231 233 236 234 230 228 230 232 236 235 233 243 254 230 229 216 223 197 225 228 235 247 247 252
Height
5888 5888 5888 5889 5891 5886 5886 5888 5893 5890 5892 5894 5892 5893 5893 5894 5895 5897 5896 5896 5896 5897 5897 5897 5898 5899 5899 5899 5899 5900 5899 5900 5900 5900 5901 5901 5902 5902 5902 5902 5903 5902 5902 5902 5901 5901 5902 5904 5905
5889 5889 5888 5888 5889 5884 5888 5889 5888 5892 5894 5893 5893 5894 5896 5896 5897 5898 5899 5899 5898 5899 5899 5899 5900 5900 5900 5900 5900 5900 5899 5900 5901 5902 5902 5903 5903 5903 5903 5903 5904 5903 5903 5902 5901 5901 5903 5906 5908
5890 5889 5888 5887 5887 5887 5886 5888 5891 5894 5894 5893 5897 5897 5899 5899 5899 5900 5900 5901 5901 5902 5902 5902 5902 5902 5900 5900 5900 5900 5900 5901 5902 5904 5905 5905 5905 5905 5905 5906 5906 5906 5905 5904 5902 5902 5905 5909 5910
5890 5890 5886 5882 5872 5887 5886 5891 5892 5894 5895 5896 5897 5899 5900 5902 5902 5903 5904 5904 5904 5904 5904 5904 5904 5903 5903 5903 5902 5902 5902 5903 5904 5906 5906 5907 5907 5907 5907 5907 5907 5908 5908 5909 5909 5908 5909 5911 5912
5891 5889 5880 5879 5881 5885 5882 5891 5894 5896 5896 5899 5899 5901 5902 5903 5904 5905 5906 5906 5906 5907 5907 5906 5907 5907 5907 5906 5905 5904 5905 5906 5906 5907 5908 5909 5909 5909 5909 5909 5909 5911 5911 5913 5913 5913 5913 5913 5914
5892 5891 5889 5887 5885 5884 5890 5893 5896 5897 5900 5901 5902 5903 5905 5905 5906 5907 5908 5908 5909 5910 5910 5910 5910 5910 5910 5910 5909 5908 5908 5909 5909 5910 5911 5911 5912 5912 5912 5912 5913 5914 5915 5916 5916 5916 5916 5916 5916
5893 5892 5892 5892 5891 5891 5893 5896 5897 5901 5901 5903 5903 5905 5907 5907 5908 5909 5910 5910 5911 5913 5914 5913 5914 5914 5913 5913 5913 5912 5912 5912 5913 5913 5914 5915 5915 5915 5916 5917 5917 5918 5918 5918 5918 5919 5920 5919 5919
5895 5894 5894 5894 5893 5893 5895 5897 5899 5901 5904 5904 5905 5906 5908 5908 5910 5911 5912 5914 5914 5915 5916 5916 5917 5918 5918 5917 5916 5916 5916 5917 5917 5918 5918 5918 5919 5920 5920 5920 5920 5921 5921 5921 5921 5920 5919 5921 5923
5895 5896 5895 5892 5894 5895 5896 5897 5901 5905 5905 5906 5907 5908 5910 5910 5911 5914 5914 5915 5917 5918 5919 5920 5920 5921 5921 5921 5920 5919 5920 5921 5921 5922 5922 5923 5924 5923 5924 5924 5924 5925 5925 5924 5922 5923 5924 5922 5924
5895 5896 5896 5896 5897 5896 5897 5898 5900 5903 5906 5908 5909 5909 5911 5912 5915 5915 5916 5917 5918 5922 5922 5922 5923 5924 5924 5924 5923 5926 5924 5925 5925 5925 5926 5927 5928 5928 5927 5928 5928 5927 5926 5924 5924 5931 5930 5927 5928
5891 5896 5897 5899 5898 5898 5897 5900 5900 5903 5906 5907 5909 5911 5912 5913 5915 5917 5918 5919 5920 5923 5924 5926 5927 5928 5927 5927 5927 5927 5927 5927 5928 5929 5928 5930 5930 5931 5930 5931 5928 5925 5929 5929 5924 5929 5931 5930 5932
5895 5896 5897 5898 5898 5897 5899 5895 5902 5903 5903 5908 5909 5911 5912 5914 5916 5918 5920 5921 5924 5925 5926 5928 5929 5929 5931 5931 5930 5931 5931 5931 5932 5932 5933 5932 5933 5932 5933 5933 5927 5929 5934 5938 5933 5931 5934 5935 5936
5890 5895 5897 5898 5899 5900 5900 5899 5900 5902 5880 5908 5908 5912 5914 5914 5917 5919 5921 5922 5924 5925 5928 5930 5931 5933 5934 5934 5936 5935 5935 5935 5935 5936 5935 5936 5935 5933 5938 5941 5933 5932 5939 5939 5932 5929 5941 5939 5939
5894 5896 5897 5898 5900 5900 5901 5901 5901 5903 5903 5909 5909 5912 5914 5915 5916 5919 5921 5923 5925 5928 5929 5931 5934 5935 5935 5937 5938 5938 5938 5937 5938 5939 5939 5940 5937 5935 5936 5938 5937 5938 5938 5940 5942 5946 5945 5942 5944
5892 5895 5896 5897 5899 5901 5902 5903 5902 5903 5905 5908 5910 5913 5914 5915 5917 5919 5921 5923 5926 5928 5930 5932 5934 5935 5937 5938 5939 5938 5939 5937 5940 5942 5943 5943 5940 5938 5941 5942 5943 5942 5945 5947 5950 5950 5946 5947 5948
5889 5893 5895 5896 5898 5901 5901 5900 5901 5902 5905 5908 5911 5913 5914 5915 5917 5919 5921 5924 5925 5928 5931 5933 5935 5937 5938 5940 5940 5941 5944 5943 5943 5945 5946 5946 5945 5942 5944 5946 5946 5943 5944 5949 5951 5951 5951 5951 5952
5886 5891 5895 5897 5897 5898 5899 5893 5898 5902 5904 5908 5910 5912 5913 5915 5916 5919 5921 5922 5926 5929 5931 5934 5935 5937 5939 5941 5941 5942 5943 5945 5946 5947 5948 5949 5949 5948 5947 5948 5948 5947 5947 5951 5953 5953 5955 5956 5957
5887 5892 5890 5895 5897 5895 5899 5899 5901 5904 5905 5907 5908 5910 5913 5915 5915 5918 5920 5922 5924 5928 5931 5934 5936 5937 5939 5941 5943 5944 5944 5946 5947 5949 5950 5951 5952 5951 5951 5951 5952 5952 5953 5953 5955 5956 5957 5959 5960
5886 5894 5895 5893 5893 5896 5896 5900 5899 5900 5902 5904 5906 5907 5911 5913 5915 5916 5919 5921 5924 5927 5930 5933 5936 5937 5939 5941 5943 5945 5946 5947 5949 5949 5951 5951 5952 5953 5954 5954 5954 5955 5956 5956 5957 5958 5959 5961 5962
5880 5885 5888 5887 5891 5884 5892 5897 5893 5896 5897 5902 5903 5905 5908 5910 5912 5915 5917 5920 5923 5926 5929 5932 5935 5938 5940 5942 5943 5946 5948 5949 5949 5950 5951 5952 5953 5954 5954 5955 5956 5956 5957 5958 5959 5961 5961 5962 5963
5876 5882 5887 5889 5886 5889 5885 5890 5892 5893 5897 5899 5900 5901 5904 5909 5911 5912 5915 5918 5922 5925 5928 5931 5934 5937 5939 5941 5943 5945 5948 5949 5950 5951 5952 5953 5953 5954 5956 5957 5957 5957 5957 5959 5960 5961 5964 5964 5966
5872 5881 5874 5880 5879 5886 5888 5890 5889 5890 5894 5897 5897 5900 5901 5906 5909 5910 5912 5915 5919 5923 5926 5930 5933 5936 5939 5941 5943 5945 5946 5948 5950 5951 5952 5953 5954 5956 5958 5958 5957 5956 5958 5957 5960 5962 5964 5966 5968
5869 5878 5873 5881 5881 5888 5890 5895 5891 5891 5893 5894 5895 5896 5897 5903 5906 5908 5911 5914 5917 5921 5924 5927 5932 5935 5939 5941 5943 5944 5946 5947 5950 5952 5952 5953 5954 5956 5958 5959 5958 5962 5961 5961 5962 5963 5965 5967 5969
5865 5870 5873 5875 5881 5885 5890 5891 5886 5886 5890 5882 5889 5893 5890 5894 5901 5905 5909 5912 5916 5919 5922 5926 5930 5933 5936 5940 5942 5944 5945 5947 5949 5950 5952 5953 5954 5956 5958 5959 5960 5963 5964 5964 5963 5964 5966 5968 5970
5857 5861 5869 5872 5875 5879 5886 5887 5877 5879 5881 5880 5886 5888 5876 5862 5893 5902 5908 5911 5916 5919 5922 5924 5928 5932 5935 5938 5940 5942 5944 5946 5949 5950 5952 5950 5952 5957 5960 5960 5960 5964 5965 5967 5966 5964 5966 5969 5970
5850 5857 5866 5868 5872 5878 5882 5883 5869 5873 5879 5882 5883 5885 5891 5890 5892 5902 5906 5910 5912 5917 5920 5923 5926 5929 5933 5936 5939 5940 5942 5945 5948 5949 5950 5953 5953 5955 5958 5958 5960 5961 5963 5965 5967 5967 5968 5969 5970
5846 5849 5863 5871 5873 5877 5879 5871 5866 5869 5880 5885 5889 5890 5889 5893 5895 5896 5900 5905 5909 5913 5916 5919 5921 5925 5929 5933 5936 5939 5941 5943 5946 5948 5951 5952 5952 5951 5957 5958 5961 5961 5962 5965 5968 5970 5970 5970 5971
5835 5849 5854 5859 5866 5875 5873 5872 5868 5874 5881 5884 5887 5886 5889 5893 5892 5898 5899 5902 5906 5909 5912 5915 5918 5921 5924 5928 5932 5936 5939 5941 5944 5947 5950 5951 5949 5952 5954 5960 5959 5964 5962 5965 5968 5970 5971 5970 5970
5832 5832 5844 5856 5863 5869 5865 5861 5857 5863 5878 5882 5883 5882 5884 5887 5891 5894 5886 5899 5901 5901 5905 5909 5913 5916 5919 5923 5927 5931 5934 5938 5941 5944 5948 5949 5946 5951 5956 5958 5960 5965 5963 5964 5968 5970 5970 5970 5970
5828 5834 5840 5846 5853 5860 5854 5849 5853 5862 5870 5872 5875 5877 5879 5883 5885 5889 5890 5891 5881 5879 5901 5901 5905 5909 5914 5919 5922 5926 5929 5933 5937 5941 5944 5947 5946 5947 5955 5959 5962 5962 5961 5963 5966 5969 5969 5969 5969